Location: Dampvalley
(47.9094°N, 6.1967°E)
Time: 01:50:47
(UTC+00:00)

N. Korean satellite - Pass Details

Date: 09 December 2022
Orbit: 408 x 444 km, 97.3° (Epoch: 28 January)

Event Time Altitude Azimuth Distance (km) Brightness Sun altitude
Rises 04:49:25 0° 15° (NNE) 2,503 10.3 -22.9°
Reaches altitude 10° 04:51:30 10° 19° (NNE) 1,615 9.3 -22.6°
Maximum altitude 04:54:57 63° 101° (E) 513 6.8 -22.0°
Drops below altitude 10° 04:58:17 10° 183° (S) 1,571 9.2 -21.5°
Sets 05:00:18 0° 187° (S) 2,426 10.2 -21.1°
